Regional Weather Roundup
Issued by NWS

Home | Current Version | Previous Version | Text Only | Print | Product List | Glossary On
Versions: 1 2 3 4 5 6 7 8 9 10 11 12 13 14 15 16 17 18 19 20 21 22 23 24 25 26 27 28 29 30 31 32 33 34 35 36 37 38 39 40 41 42 43 44 45 46 47 48 49 50
000
ASUS46 KLOX 221512
RWRCA

SOUTHERN CALIFORNIA WEATHER ROUNDUP
NATIONAL WEATHER SERVICE OXNARD CALIFORNIA
800 AM PDT WED OCT 22 2014

NOTE: "FAIR" INDICATES FEW OR NO CLOUDS BELOW 12,000 FEET WITH NO
SIGNIFICANT WEATHER AND/OR OBSTRUCTIONS TO VISIBILITY.

  -  STATIONS PRECEEDED BY AN ASTERISK (*) ARE NOT NWS OR FAA
     STATIONS AND ARE NOT SUBJECT TO NWS AND FAA QUALITY CONTROL.

CAZ041-042-087-221600-
LA AND ORANGE COUNTY COASTAL AREAS


CITY           SKY/WX    TMP DP  RH WIND       PRES   REMARKS
L.A. DOWNTOWN  SUNNY     61  57  87 CALM      29.92R
L.A. AIRPORT   SUNNY     63  60  90 SE5       29.93R
LONG BEACH     NOT AVBL

CITY           SKY/WX    TMP DP  RH WIND       PRES   REMARKS
AVALON           N/A     59 N/A N/A SE3         N/A
*GETTY CENTER    N/A     64  37  36 NE3G9       N/A
HAWTHORNE      NOT AVBL
*REDONDO BEACH   N/A     57  54  89 CALM      29.92R
SANTA ANA      NOT AVBL
*STA MON PIER    N/A     64  53  66 CALM      29.93R
*UCLA            N/A     64  45  48 CALM      29.91R

$$

CAZ547-548-048-221600-
LA COUNTY VALLEYS AND INLAND EMPIRE


CITY           SKY/WX    TMP DP  RH WIND       PRES   REMARKS
BURBANK        NOT AVBL
VAN NUYS       NOT AVBL

CITY           SKY/WX    TMP DP  RH WIND       PRES   REMARKS
CORONA AIRPORT SUNNY     48  48 100 CALM      29.95R FOG
*CHATSWORTH      N/A     58  46  64 CALM      29.92R
*NORTHRIDGE      N/A     57  46  67 CALM        N/A
ONTARIO        NOT AVBL
*PASADENA        N/A     61  52  72 CALM        N/A
SAN BERNARDINO NOT AVBL
*WHITEMAN AP   NOT AVBL
*WOODLAND HILL   N/A     54  46  76 NE1         N/A

$$

CAZ054-055-221600-
LA AND SAN BERNARDINO COUNTY MOUNTAINS


CITY           SKY/WX    TMP DP  RH WIND       PRES   REMARKS
*BIG BEAR AIRP SUNNY     32  16  51 CALM      30.20R
*CHILAO          N/A     64  18  17 N5          N/A
MT WILSON NWS    N/A     57  14  18 W2          N/A
SANDBERG       CLEAR     57  34  41 N20       30.08R
*WARM SPRINGS    N/A     66  23  19 E2          N/A

$$

CAZ028-029-059-060-099-221600-
ANTELOPE VALLEY AND SURROUNDING AREAS


CITY           SKY/WX    TMP DP  RH WIND       PRES   REMARKS
LANCASTER      NOT AVBL
PALMDALE       NOT AVBL

CITY           SKY/WX    TMP DP  RH WIND       PRES   REMARKS
29 PALMS       MOSUNNY   61  33  35 W13       30.07R
BARSTOW/DAGGET NOT AVBL
BISHOP         NOT AVBL
CHINA LAKE     MOSUNNY   52  31  44 CALM      30.03R
MOJAVE         FAIR      50  36  57 W3        30.05R
NEEDLES        NOT AVBL
VICTORVILLE    SUNNY     46  34  61 CALM      30.04R

$$

CAZ039-040-221600-
VENTURA AND SANTA BARBARA COUNTY COAST


CITY           SKY/WX    TMP DP  RH WIND       PRES   REMARKS
CAMARILLO      NOT AVBL
OXNARD AIRPORT NOT AVBL
*POINT MUGU    PTCLDY    60  49  66 N6        29.93R
SBA APT/GOLETA NOT AVBL
*SANTA BARBARA   N/A     59  52  78 CALM      30.01R
*VENTURA         N/A     59  42  52 N3        29.96S

$$

CAZ044-045-221600-
VENTURA COUNTY VALLEYS


CITY           SKY/WX    TMP DP  RH WIND       PRES   REMARKS
*SIMI VALLEY     N/A     64  44  48 CALM      29.91R
*OJAI            N/A     52  49  90 CALM      29.92R
*FILLMORE        N/A     53  46  77 CALM      29.86R

$$

CAZ053-221600-
VENTURA COUNTY MOUNTAINS


CITY           SKY/WX    TMP DP  RH WIND       PRES   REMARKS
*LOCKWOOD VLY    N/A     37  21  52 MISG        N/A
*ROSE VALLEY     N/A     34  28  80 MISG        N/A

$$

CAZ034-035-036-221600-
CENTRAL COAST AND SANTA YNEZ VALLEY


CITY           SKY/WX    TMP DP  RH WIND       PRES   REMARKS
SAN LUIS OBISP NOT AVBL
SANTA MARIA    CLEAR     67  42  40 VRB5      29.94S

CITY           SKY/WX    TMP DP  RH WIND       PRES   REMARKS
*CAL POLY SLO    N/A     64  43  45 N12         N/A
*LOMPOC        CLEAR     48  39  71 CALM      29.95R
*PISMO BEACH     N/A     64  42  45 NE3       29.98R
*SANTA YNEZ    FAIR      46  37  71 CALM      29.96R

$$

CAZ037-038-051-221600-
SAN LUIS OBISPO COUNTY INTERIOR AND CUYAMA VALLEY


CITY           SKY/WX    TMP DP  RH WIND       PRES   REMARKS
*CUYAMA          N/A     45  38  76 E1        30.04R
PASO ROBLES    NOT AVBL

$$

CAZ032-033-061-221600-
SOUTHERN DESERTS


CITY           SKY/WX    TMP DP  RH WIND       PRES   REMARKS
BLYTHE         NOT AVBL
IMPERIAL       NOT AVBL
PALM SPRINGS   NOT AVBL
THERMAL        NOT AVBL

$$

ELSEWHERE ACROSS THE WESTERN UNITED STATES AND MEXICO


CITY           SKY/WX    TMP DP  RH WIND       PRES   REMARKS
DENVER, CO     NOT AVBL
GRAND CANYON,  NOT AVBL
HONOLULU, HI   NOT AVBL
KAHULUI, MAUI  NOT AVBL
LAKE TAHOE, CA NOT AVBL
LAS VEGAS, NV  NOT AVBL
MAMMOTH LAKES, FAIR      28  16  59 N5        30.21S WCI  23
MEXICO CITY, M CLOUDY    59  52  77 W6        30.32R
PHOENIX, AZ    NOT AVBL
PORTLAND, OR   NOT AVBL
RENO, NV       NOT AVBL
SALT LAKE CITY NOT AVBL
SAN DIEGO, CA  SUNNY     65  59  81 CALM      29.94R FOG
SAN FRANCISCO, NOT AVBL
SAN JOSE, CA   NOT AVBL
SEATTLE, WA    NOT AVBL
TIJUANA, MEX   NOT AVBL

$$

STATION/POSITION TIME  TEMP    WIND        PRES    VSBY  WAVE
                       AIR SEA DIR/SP/G                  HT/PER
                 (UTC) (F)     (DEG/KT/KT) (MB)    (MI)  (FT/S)
POINT ARGUELLO B NOT AVBL
WEST SANTA BARBA 1400   65 65  330/ 16/ 21 1011.6R        10/14
POINT CONCEPTION NOT AVBL
EAST SANTA BARBA NOT AVBL
SANTA MONICA BAY 1400   69 72  110/  6/  8 1012.0R         7/15



USA.gov is the U.S. government's official web portal to all federal, state and local government web resources and services.